Weslaco Annex Farm's Hourly Summary for Monday, March 13, 2017
Hour Temp
(f)
RH
(%)
Solar Rad.
(MJ/m2)
Rainfall
(in)
Wind
(mph)
3/13/2017 12:00 AM 57 100 0 0 6.08
3/13/2017 1:00 AM 57 100 0 0 5.11
3/13/2017 2:00 AM 57 99 0 0 4.29
3/13/2017 3:00 AM 57 99 0 0 4.2
3/13/2017 4:00 AM 57 99 0 0 4.07
3/13/2017 5:00 AM 57 99 0 0 2.44
3/13/2017 6:00 AM 57 99 0 0 2.03
3/13/2017 7:00 AM 56 100 0 0 1.79
3/13/2017 8:00 AM 56 100 0.03 0 1.71
3/13/2017 9:00 AM 57 100 0.12 0 1.19
3/13/2017 10:00 AM 59 99 0.26 0 1.75
3/13/2017 11:00 AM 60 97 0.35 0 2.37
3/13/2017 12:00 PM 61 96 0.39 0 3.2
3/13/2017 1:00 PM 63 92 0.47 0 4.56
3/13/2017 2:00 PM 63 90 0.3 0 4.63
3/13/2017 3:00 PM 63 90 0.25 0 6.32
3/13/2017 4:00 PM 61 93 0.21 0 8.06
3/13/2017 5:00 PM 62 88 0.28 0 9.98
3/13/2017 6:00 PM 62 84 0.16 0 4.24
3/13/2017 7:00 PM 62 86 0.03 0 2.06
3/13/2017 8:00 PM 62 91 0 0 0.59
3/13/2017 9:00 PM 61 92 0 0 2.27
3/13/2017 10:00 PM 60 97 0 0 2.16
3/13/2017 11:00 PM 60 98 0 0 2.73
Data Summary 59 95 2.85 0.00 3.66